Probability
26 26 26 26 26 26 24 24 25 25 23 20 18 15 14 14 14 14 13 11 8 8 8 7 4 2 0 0 0 0 0 0 0 0 0 0 0 0 0 0 0 0 0
28 27 26 26 27 26 24 24 26 26 23 20 19 17 15 15 16 17 15 12 9 8 8 7 5 3 1 1 1 1 1 0 0 0 0 0 0 0 0 0 0 0 0
27 27 27 27 28 27 25 25 26 26 23 21 20 18 16 16 17 18 16 13 10 9 8 6 5 4 3 2 2 2 2 1 1 0 0 0 0 0 0 0 0 0 0
23 24 25 27 27 26 25 25 25 25 23 21 21 19 17 16 16 16 15 13 10 9 7 6 5 4 3 3 3 3 3 3 2 1 1 1 0 0 0 0 0 0 0
23 22 23 26 27 26 24 25 26 25 23 22 21 20 19 17 16 16 15 12 10 8 7 6 6 4 3 3 3 3 3 4 4 3 2 2 1 1 1 1 0 0 0
25 22 21 24 26 26 28 29 29 27 26 24 22 21 19 17 17 18 17 14 11 9 7 6 6 5 4 3 4 4 4 4 4 4 3 3 3 2 2 2 1 1 0
26 24 21 22 26 30 34 35 32 28 28 27 25 23 20 18 17 18 17 14 13 12 10 8 7 5 4 4 4 5 4 5 4 4 3 3 3 3 3 3 3 2 1
23 22 22 24 29 35 39 39 36 31 30 29 27 25 23 20 18 17 15 14 15 15 12 9 7 4 3 3 4 4 5 5 4 4 3 3 3 3 3 3 3 3 2
19 19 21 25 32 37 41 41 40 36 33 31 28 28 26 22 19 15 13 14 16 15 12 9 6 3 1 1 2 3 4 4 4 3 3 3 3 3 3 3 3 2 2
13 14 17 23 31 37 40 41 41 41 39 34 31 28 25 21 16 12 12 13 14 13 10 7 5 2 0 0 1 1 2 2 2 2 2 3 3 3 3 3 3 2 1
8 11 15 19 26 33 38 39 39 40 39 36 33 29 24 19 12 8 9 12 12 10 7 6 4 1 0 0 0 0 1 1 1 1 1 1 2 2 3 3 3 2 1
6 9 13 17 22 27 32 35 36 35 34 33 32 30 24 16 9 6 8 10 10 8 5 3 2 0 0 0 0 0 0 0 0 1 1 1 1 1 1 2 2 2 2
7 9 11 14 18 21 24 28 29 28 28 29 30 28 23 15 9 7 9 10 9 7 4 2 1 0 0 0 0 0 0 0 0 1 2 2 2 1 1 1 1 1 1
10 10 11 11 13 16 18 20 21 21 23 25 25 24 21 17 14 12 12 12 10 7 5 3 1 0 0 0 0 0 0 0 0 1 2 3 3 2 2 2 1 1 1
12 13 12 10 10 12 14 14 14 13 16 19 21 20 20 20 20 19 17 14 12 9 7 5 3 1 0 0 0 0 0 0 0 0 1 2 2 2 2 2 2 2 2
13 14 14 13 11 12 12 12 11 9 11 14 16 18 20 23 24 23 20 16 13 11 8 6 3 1 1 0 0 0 0 0 0 0 0 1 1 0 1 1 1 1 2
14 14 15 15 13 12 12 13 12 10 11 12 13 15 18 23 25 23 21 17 13 12 9 6 3 3 2 1 0 0 0 0 0 0 0 0 0 0 0 1 0 0 1
18 17 16 15 13 11 11 12 11 12 12 12 12 13 16 21 23 20 19 17 15 13 11 7 4 3 2 1 0 0 0 0 0 0 0 0 0 0 0 0 0 0 0
19 18 18 16 13 10 11 11 11 12 13 12 11 11 13 17 18 17 16 16 17 16 13 10 6 4 3 1 0 0 0 1 1 0 0 0 0 0 0 0 0 0 0
14 15 15 14 11 8 9 10 11 12 11 9 9 9 10 12 14 13 12 13 15 15 13 11 9 7 4 1 0 0 1 2 2 1 0 0 0 0 0 0 0 0 0
8 10 11 9 7 5 5 6 8 9 9 8 8 9 8 9 10 10 9 9 11 12 12 12 10 9 6 2 0 0 1 2 2 1 0 0 0 0 0 0 0 0 0
5 6 6 5 4 3 3 4 5 6 7 8 8 8 8 9 10 9 8 7 8 10 11 12 12 11 8 4 1 0 0 1 2 2 1 0 0 0 0 0 0 0 0
4 4 5 4 4 4 4 5 5 5 6 6 6 7 9 10 10 9 8 7 7 10 12 13 13 12 10 5 1 0 0 1 2 2 1 0 0 0 0 0 0 0 0
5 5 6 6 6 6 6 7 6 5 4 5 5 7 9 10 10 9 9 7 7 9 12 12 12 12 10 6 3 1 0 0 1 1 1 0 0 0 0 0 0 0 0
6 6 7 8 8 7 7 8 7 5 4 4 5 6 8 9 9 8 7 6 6 8 9 9 9 8 7 5 3 2 0 0 0 0 0 0 0 0 0 0 0 0 0
6 6 7 9 9 7 7 8 8 6 3 3 5 5 6 8 7 6 4 3 4 5 6 6 6 5 4 3 2 1 0 0 0 0 0 0 0 0 0 0 0 0 0
Wind_Speed
8 8 9 9 8 6 6 6 6 4 4 3 3 3 2 1 1 2 3 3 3 3 3 2 2 1 1 1 1 1 1 1 1 2 2 2 1 0 1 2 2 2 3
7 8 8 7 8 7 6 6 6 5 4 3 3 3 2 1 1 1 2 2 3 3 3 3 2 2 1 1 1 1 1 1 1 2 2 2 3 2 1 1 2 2 2
11 10 9 9 8 7 7 7 6 5 4 4 3 3 2 2 2 1 1 1 2 2 2 3 2 2 2 1 1 2 2 1 0 1 3 2 1 1 2 1 1 1 1
9 10 10 9 9 9 8 7 7 6 5 5 4 5 3 2 2 1 1 1 2 2 2 2 2 2 2 2 2 2 2 2 1 0 1 2 3 2 1 2 1 1 2
10 10 10 10 9 9 8 6 6 5 5 5 5 5 3 2 1 1 1 1 0 1 1 2 2 2 1 1 1 1 1 2 2 1 1 1 1 2 2 1 1 1 1
9 8 8 7 6 6 6 6 7 5 5 5 5 5 5 4 3 2 2 1 1 0 1 2 1 2 1 2 1 1 2 1 1 1 1 1 2 2 2 2 1 1 2
7 6 6 6 6 7 6 6 6 5 5 5 5 5 5 5 5 4 3 2 1 1 2 2 2 1 1 1 1 1 1 1 1 1 1 1 1 1 2 3 1 1 1
5 6 6 6 7 7 7 6 6 6 5 5 4 4 5 4 3 4 3 3 3 2 2 2 2 2 1 1 1 1 1 1 1 1 1 1 1 1 2 3 3 1 1
5 5 5 5 5 6 7 8 7 6 6 6 5 4 4 4 4 4 3 3 2 2 2 2 2 1 1 1 1 1 1 1 1 1 1 1 0 0 1 1 2 3 2
4 4 4 4 4 4 5 6 7 6 5 5 5 5 4 4 4 3 3 3 3 2 2 2 1 1 1 1 1 1 1 1 1 1 1 0 0 0 0 1 1 2 3
3 3 4 4 4 4 4 4 5 5 4 4 4 3 3 3 3 3 3 3 2 3 3 3 2 1 1 1 1 1 1 1 1 1 1 1 0 1 0 1 1 1 2
2 3 4 5 4 4 4 4 4 4 4 4 3 3 3 3 3 3 3 3 3 3 3 3 2 2 1 1 2 2 1 1 2 1 1 1 0 0 0 1 1 1 1
3 4 4 4 4 4 3 3 3 3 4 3 3 3 3 3 3 3 2 3 3 3 2 3 3 2 2 1 2 2 2 2 2 2 2 1 1 0 0 0 0 0 1
4 4 4 3 4 3 4 3 2 2 3 3 3 3 4 4 4 3 3 3 3 3 3 3 3 3 2 2 2 2 1 1 1 2 2 2 2 2 1 1 1 1 1
3 3 3 2 3 2 2 2 2 2 2 3 3 3 3 3 3 2 2 3 3 3 3 3 2 2 2 2 2 2 2 2 1 1 1 2 2 3 2 1 1 2 1
3 3 2 3 3 2 2 2 1 1 1 2 2 2 2 3 3 3 3 2 2 2 2 3 2 2 1 2 3 3 2 2 2 2 1 1 1 2 1 1 2 3 3
2 2 2 3 2 2 2 2 2 1 2 1 1 1 2 2 3 3 3 3 3 3 3 3 3 2 2 3 4 4 3 3 3 3 2 1 1 1 0 1 1 1 3
2 1 1 1 1 1 1 1 1 1 1 1 1 2 2 2 2 2 3 3 3 3 3 3 3 2 2 3 4 4 3 3 3 3 3 3 2 1 1 1 0 1 2
2 1 0 1 1 1 1 1 0 1 1 1 2 2 2 2 2 2 3 3 3 3 3 3 3 3 2 3 3 3 2 2 2 2 3 3 2 3 3 2 1 2 3
1 1 1 1 1 1 1 2 0 0 1 2 2 1 1 2 3 3 3 3 3 4 3 3 3 3 2 2 3 3 2 2 2 1 2 3 3 4 3 2 2 2 4
1 2 2 2 1 1 1 1 0 1 2 1 1 1 2 2 3 3 2 2 3 3 2 3 2 2 3 3 4 3 2 3 2 2 1 2 3 3 3 3 3 5 4
2 2 2 2 2 1 1 1 1 2 1 0 1 2 2 2 1 1 1 2 2 2 2 2 1 1 2 3 3 3 3 2 3 2 2 2 3 3 3 3 4 4 2
1 1 2 2 2 2 1 1 2 2 1 0 1 1 1 1 1 1 1 1 2 2 2 2 2 1 1 1 3 4 4 3 2 2 3 3 4 3 2 3 4 2 1
1 1 2 2 1 2 1 2 2 1 0 1 1 1 1 1 0 0 1 1 2 2 2 3 2 2 1 1 1 1 2 2 1 1 1 2 2 1 1 2 1 1 1
1 1 1 1 1 1 1 2 1 1 0 0 1 1 1 1 1 0 0 1 2 4 4 4 4 4 3 4 4 3 3 3 3 1 1 1 1 1 1 1 1 1 0
0 1 1 1 1 1 1 2 1 1 1 0 1 1 0 1 1 1 2 4 2 2 3 4 4 2 4 4 3 4 4 3 4 3 1 0 1 1 1 1 1 1 1
Wind_Direction
158 148 140 140 135 136 135 135 131 140 132 126 124 119 121 124 113 127 138 134 126 120 117 109 98 102 115 132 120 121 101 84 104 81 35 10 13 117 183 183 176 182 188
140 142 140 142 148 153 147 140 144 145 146 148 147 142 141 142 146 129 129 140 137 137 134 127 129 139 127 105 103 121 119 115 116 120 97 20 357 349 285 189 183 191 187
157 153 151 159 161 163 161 157 153 145 145 139 121 104 78 63 61 65 119 152 146 140 134 141 139 142 138 148 163 152 140 150 188 151 145 146 206 308 334 288 204 179 173
159 161 162 166 170 174 167 158 155 151 147 141 140 138 138 153 186 176 165 137 139 137 140 139 143 146 153 171 183 164 154 149 169 258 163 165 162 156 308 338 329 223 198
164 168 172 175 173 169 166 159 154 155 155 153 155 150 149 166 151 127 117 112 119 152 157 158 153 159 167 181 177 155 149 155 165 169 154 115 118 137 149 207 309 332 266
160 165 169 163 163 162 161 158 155 160 164 158 155 159 163 164 148 150 163 196 228 231 192 169 174 181 177 188 187 177 167 169 163 159 157 155 155 172 156 171 210 260 282
151 154 149 153 163 162 164 165 161 167 172 164 166 171 174 171 172 175 185 191 198 212 217 187 184 191 197 190 176 165 181 179 168 170 181 174 188 176 158 149 167 218 285
152 157 161 166 168 167 166 169 172 177 178 175 178 178 179 178 183 185 185 194 201 207 198 180 178 193 192 180 165 163 193 170 177 177 172 163 210 169 163 159 148 142 321
152 155 158 162 162 164 170 175 176 176 181 182 177 178 182 182 184 186 184 188 195 196 178 168 167 175 172 153 138 138 170 125 146 170 159 148 176 121 153 145 150 152 167
140 145 153 157 162 161 166 166 167 176 175 177 184 186 191 190 187 177 175 179 186 181 168 166 165 161 149 139 125 138 161 127 132 152 125 126 164 113 114 124 130 148 160
143 144 142 145 142 128 135 148 158 160 166 177 182 181 187 185 177 174 178 176 173 169 172 177 167 177 186 168 150 185 161 143 151 146 138 170 158 121 90 112 129 150 150
139 146 138 133 125 120 125 138 146 155 172 172 165 169 170 164 167 182 187 174 172 174 174 170 166 179 187 183 168 190 173 158 166 177 150 176 125 101 192 133 140 167 169
106 118 118 122 120 115 114 123 137 161 170 160 158 163 169 170 179 184 178 167 166 167 166 161 171 178 177 183 189 177 177 181 184 182 172 184 130 139 252 173 181 191 160
107 105 105 105 106 120 126 124 122 158 166 157 165 181 190 189 191 182 171 173 175 172 175 180 183 182 181 181 174 161 155 168 191 191 185 182 168 183 193 191 197 171 129
95 100 112 108 102 101 105 121 137 161 149 142 163 198 199 184 177 172 177 182 186 186 182 179 188 191 189 194 175 179 175 171 188 196 174 186 180 180 185 186 185 159 157
121 118 118 120 130 140 144 144 143 167 142 153 168 191 181 173 182 188 187 184 189 189 177 176 179 186 221 197 185 176 176 179 179 187 194 219 175 176 172 167 181 175 174
117 128 139 153 167 172 166 176 188 174 146 161 169 161 174 189 198 196 187 194 201 195 190 190 177 187 220 195 190 192 183 184 186 183 185 211 224 188 183 239 241 225 213
90 97 159 189 201 202 192 197 187 171 156 154 181 178 166 195 213 202 203 209 202 198 201 195 191 192 215 191 190 190 185 187 189 191 188 186 210 220 171 169 279 284 269
106 121 190 221 208 210 197 152 184 144 163 197 209 194 184 212 228 222 224 215 195 196 196 190 188 191 213 192 186 172 165 179 199 209 198 186 194 209 180 143 182 302 299
72 68 42 35 20 307 103 95 77 141 228 235 233 213 198 218 229 228 220 208 190 195 193 189 191 185 196 190 176 160 167 179 199 221 217 203 203 203 184 167 186 249 272
62 57 62 45 347 340 84 86 25 262 254 246 257 238 232 220 215 212 202 188 189 181 186 192 204 202 197 190 181 171 169 188 189 197 222 239 225 223 225 211 209 231 249
60 69 64 29 345 352 67 50 299 283 294 115 247 263 250 238 214 178 178 177 170 172 187 190 211 238 216 194 192 186 190 187 178 198 212 231 238 241 241 231 238 243 244
75 73 82 47 351 354 30 297 274 289 307 324 260 232 250 259 192 158 167 193 180 174 187 187 199 230 249 229 206 189 195 199 193 214 227 238 241 242 253 251 257 248 195
59 74 78 58 12 342 314 260 258 254 234 238 242 234 227 244 138 140 169 189 196 187 186 188 192 207 221 220 208 198 200 213 229 266 277 261 239 234 262 278 281 245 207
28 61 84 73 292 299 310 291 268 128 112 272 280 259 215 196 158 58 348 228 231 212 197 198 193 188 213 230 205 188 194 197 198 158 59 38 28 4 345 335 313 310 43
143 34 4 349 312 343 339 334 347 106 117 319 295 277 236 200 155 130 16 6 336 250 214 205 194 205 208 208 196 198 196 183 154 131 134 218 242 244 249 252 267 259 240